Flag for U.S.A. Weather past 2 weeks in Lansing, Michigan, U.S.A.

Now
72 °F

Fog.


Feels Like: 70 °F
Forecast: 64 / 77 °F
Wind: 5 mph from South

Location: Capital City Airport

Current Time: Aug 30, 2015 at 1:02:45 PM

Latest Report: Aug 30, 2015 at 11:53 AM


Visibility: 3 mi

Pressure: 30.07 "Hg

Humidity: 87%

Dew point: 68 °F

Location of LansingLocation

Historic Weather in Lansing — Graph

°F

Lansing temperature yesterday

Maximum temperature yesterday: 69 °F (at 2:53 PM)
Minimum temperature yesterday: 62 °F (at 6:53 AM)
Average temperature yesterday: 65 °F

Past Weeks' High & Low Weather Summary

 TemperatureHumidityPressure
High87 °F (Aug 16, 3:53 PM)97% (Aug 30, 4:53 AM)30.24 "Hg (Aug 30, 4:53 AM)
Low49 °F (Aug 28, 6:53 AM)41% (Aug 21, 1:53 PM)29.67 "Hg (Aug 19, 4:53 PM)
Average68 °F76%30.01 "Hg
* Reported Aug 15 11:53 AM — Aug 30 11:53 AM, Lansing, Weather by CustomWeather, © 2015

Note: Actual official high and low records may vary slightly from our data, if they occured in-between our weather recording intervals... More about our weather records

Advertising

Lansing weather history for previous 24 hours

 ConditionsComfort  
Time TempWeatherWind HumidityBarometerVisibility
11:53 AM
Sun, Aug 30
72 °FFog.5 mph87%30.07 "Hg3 mi
10:53 AM70 °FFog.6 mph90%30.07 "Hg2 mi
9:53 AM68 °FFog.5 mph93%30.07 "Hg2 mi
9:02 AM67 °FFog.5 mph93%30.08 "Hg2 mi
8:00 AM66 °FFog.5 mph96%30.07 "Hg3 mi
6:53 AM66 °FFog.No wind96%30.04 "Hg2 mi
5:58 AM64 °FMostly cloudy.No wind97%30.04 "Hg10 mi
4:53 AM65 °FOvercast.3 mph97%30.02 "Hg10 mi
3:53 AM66 °FMostly cloudy.3 mph93%30.02 "Hg10 mi
2:53 AM66 °FMostly cloudy.3 mph96%30.03 "Hg10 mi
1:53 AM66 °FLight rain. Overcast.3 mph96%30.04 "Hg10 mi
12:53 AM66 °FMostly cloudy.5 mph93%30.05 "Hg10 mi
11:53 PM
Sat, Aug 29
66 °FOvercast.No wind96%30.06 "Hg10 mi
10:53 PM66 °FOvercast.7 mph93%30.06 "Hg10 mi
9:53 PM66 °FLight rain. Overcast.No wind93%30.07 "Hg10 mi
8:53 PM66 °FMore clouds than sun.6 mph93%30.06 "Hg10 mi
7:53 PM66 °FLight rain. Fog.No wind96%30.07 "Hg3 mi
6:53 PM67 °FFog.7 mph93%30.06 "Hg3 mi
5:53 PM67 °FRain. Mostly cloudy.3 mph93%30.08 "Hg10 mi
4:53 PM69 °FOvercast.5 mph84%30.07 "Hg10 mi
3:53 PM69 °FMostly cloudy.5 mph84%30.08 "Hg10 mi
2:53 PM69 °FOvercast.5 mph81%30.09 "Hg10 mi
1:53 PM68 °FPartly sunny.5 mph84%30.11 "Hg10 mi
Weather by CustomWeather, © 2015

See weather overviewHow to use our weather pages